{"data":{"norad_id":44865,"epoch":"2026-05-24T10:24:48.362976Z","epoch_age_seconds":120363,"freshness":"FRESH","line1":"1 44865U 19090B   26144.43389309 -.00000070  00000+0  00000+0 0  9998","line2":"2 44865  56.5410  63.6095 0016630 310.6974 227.4211  1.86231454 43779","mean_motion":1.86231454,"eccentricity":0.001663,"inclination_deg":56.541,"raan_deg":63.6095,"arg_perigee_deg":310.6974,"mean_anomaly_deg":227.4211,"bstar":0,"rev_number":4377,"period_min":773.23135757722,"perigee_km":21481.598294074,"apogee_km":21574.414126392,"semimajor_km":27906.143210233,"source":"CELESTRAK","updated_at":"2026-05-25T13:38:24.223387Z"}}